| time (UTC) | temp F | wind direction | speed MPH | gust MPH | rain 1hr in | rain 24hr in | rain mn in | humidity % | barometer mb |
| 20260905135521 | 79 | 223 | 1.0 | 5.0 | 0.00 | 0.03 | 0.00 | 79 | 1016.1 |
| 20260905135019 | 78 | 153 | 1.0 | 5.0 | 0.00 | 0.03 | 0.00 | 81 | 1016.1 |
| 20260905134545 | 77 | 141 | 1.0 | 4.0 | 0.00 | 0.03 | 0.00 | 82 | 1016.1 |
| 20260905134020 | 76 | 121 | 1.0 | 3.0 | 0.00 | 0.03 | 0.00 | 83 | 1016.1 |
| 20260905133519 | 75 | 0 | 0.0 | 3.0 | 0.00 | 0.03 | 0.00 | 85 | 1016.1 |
| 20260905133038 | 74 | 0 | 0.0 | 2.0 | 0.00 | 0.03 | 0.00 | 86 | 1016.0 |
| 20260905132518 | 74 | 0 | 0.0 | 2.0 | 0.00 | 0.03 | 0.00 | 87 | 1016.0 |
| 20260905132018 | 73 | 0 | 0.0 | 1.0 | 0.00 | 0.03 | 0.00 | 87 | 1015.9 |
| 20260905125518 | 71 | 121 | 0.0 | 2.0 | 0.00 | 0.05 | 0.00 | 89 | 1015.8 |
| 20260905125020 | 71 | 0 | 0.0 | 1.0 | 0.00 | 0.05 | 0.00 | 90 | 1015.7 |
| 20260905124538 | 71 | 0 | 0.0 | 1.0 | 0.00 | 0.05 | 0.00 | 90 | 1015.5 |
| 20260905124017 | 71 | 0 | 0.0 | 0.0 | 0.00 | 0.05 | 0.00 | 90 | 1015.5 |
| 20260905123518 | 71 | 0 | 0.0 | 1.0 | 0.00 | 0.05 | 0.00 | 90 | 1015.5 |
| 20260905123036 | 71 | 0 | 0.0 | 2.0 | 0.00 | 0.05 | 0.00 | 90 | 1015.5 |
| 20260905122516 | 71 | 0 | 0.0 | 2.0 | 0.00 | 0.05 | 0.00 | 90 | 1015.4 |
| 20260905120038 | 70 | 0 | 0.0 | 0.0 | 0.00 | 0.05 | 0.00 | 90 | 1015.3 |
| 20260905114545 | 71 | 0 | 0.0 | 0.0 | 0.00 | 0.05 | 0.00 | 88 | 1015.3 |
| 20260905113041 | 71 | 0 | 0.0 | 1.0 | 0.00 | 0.05 | 0.00 | 88 | 1015.3 |
| 20260905111548 | 71 | 0 | 0.0 | 1.0 | 0.00 | 0.05 | 0.00 | 88 | 1015.3 |
| 20260905110520 | 71 | 0 | 0.0 | 0.0 | 0.00 | 0.05 | 0.00 | 88 | 1015.3 |
| 20260905110043 | 71 | 0 | 0.0 | 0.0 | 0.00 | 0.05 | 0.00 | 88 | 1015.3 |
| 20260905104542 | 71 | 0 | 0.0 | 1.0 | 0.00 | 0.05 | 0.00 | 88 | 1015.3 |
| 20260905103041 | 71 | 0 | 0.0 | 0.0 | 0.00 | 0.05 | 0.00 | 89 | 1015.3 |
| 20260905102020 | 71 | 0 | 0.0 | 0.0 | 0.00 | 0.05 | 0.00 | 87 | 1015.2 |
| 20260905101539 | 71 | 0 | 0.0 | 0.0 | 0.00 | 0.05 | 0.00 | 87 | 1015.2 |
| 20260905101019 | 71 | 0 | 0.0 | 0.0 | 0.00 | 0.05 | 0.00 | 87 | 1015.1 |
| 20260905100519 | 71 | 0 | 0.0 | 0.0 | 0.00 | 0.05 | 0.00 | 87 | 1015.2 |
| 20260905100042 | 71 | 0 | 0.0 | 0.0 | 0.00 | 0.05 | 0.00 | 86 | 1015.2 |
| 20260905095520 | 72 | 0 | 0.0 | 0.0 | 0.00 | 0.05 | 0.00 | 86 | 1015.2 |
| 20260905095021 | 72 | 0 | 0.0 | 0.0 | 0.00 | 0.05 | 0.00 | 87 | 1015.1 |
| 20260905094542 | 71 | 0 | 0.0 | 0.0 | 0.00 | 0.05 | 0.00 | 86 | 1015.1 |
| 20260905093037 | 72 | 0 | 0.0 | 0.0 | 0.00 | 0.05 | 0.00 | 84 | 1015.1 |
| 20260905092020 | 73 | 0 | 0.0 | 1.0 | 0.00 | 0.05 | 0.00 | 84 | 1015.1 |
| 20260905091539 | 73 | 0 | 0.0 | 1.0 | 0.00 | 0.05 | 0.00 | 83 | 1015.1 |
| 20260905091021 | 73 | 0 | 0.0 | 2.0 | 0.00 | 0.05 | 0.00 | 84 | 1015.1 |
| 20260905090518 | 73 | 0 | 0.0 | 2.0 | 0.00 | 0.05 | 0.00 | 84 | 1015.2 |
| 20260905090103 | 72 | 0 | 0.0 | 2.0 | 0.00 | 0.05 | 0.00 | 84 | 1015.1 |
| 20260905084538 | 73 | 0 | 0.0 | 0.0 | 0.00 | 0.05 | 0.00 | 82 | 1015.1 |
| 20260905083035 | 74 | 0 | 0.0 | 2.0 | 0.00 | 0.05 | 0.00 | 81 | 1015.0 |
| 20260905082523 | 74 | 0 | 0.0 | 2.0 | 0.00 | 0.05 | 0.00 | 81 | 1015.0 |
| 20260905082017 | 74 | 121 | 0.0 | 2.0 | 0.00 | 0.05 | 0.00 | 81 | 1015.0 |
| 20260905081543 | 74 | 0 | 0.0 | 2.0 | 0.00 | 0.05 | 0.00 | 81 | 1014.9 |
| 20260905080041 | 74 | 0 | 0.0 | 4.0 | 0.00 | 0.05 | 0.00 | 81 | 1015.0 |
| 20260905074544 | 74 | 0 | 0.0 | 0.0 | 0.00 | 0.05 | 0.00 | 80 | 1015.1 |
| 20260905074020 | 75 | 0 | 0.0 | 0.0 | 0.00 | 0.05 | 0.00 | 80 | 1015.2 |
| 20260905073521 | 75 | 0 | 0.0 | 0.0 | 0.00 | 0.05 | 0.00 | 79 | 1015.2 |
| 20260905073044 | 75 | 0 | 0.0 | 1.0 | 0.00 | 0.05 | 0.00 | 79 | 1015.2 |
| 20260905072520 | 75 | 0 | 0.0 | 1.0 | 0.00 | 0.05 | 0.00 | 79 | 1015.2 |
| 20260905072023 | 75 | 0 | 0.0 | 1.0 | 0.00 | 0.05 | 0.00 | 78 | 1015.3 |
| 20260905071537 | 75 | 0 | 0.0 | 1.0 | 0.00 | 0.05 | 0.00 | 78 | 1015.3 |
| 20260905071020 | 75 | 0 | 0.0 | 2.0 | 0.00 | 0.05 | 0.00 | 77 | 1015.3 |
| 20260905070045 | 76 | 162 | 0.0 | 4.0 | 0.00 | 0.05 | 0.00 | 76 | 1015.4 |
| 20260905064540 | 76 | 0 | 0.0 | 3.0 | 0.00 | 0.05 | 0.00 | 75 | 1015.5 |
| 20260905063518 | 77 | 0 | 0.0 | 4.0 | 0.00 | 0.05 | 0.00 | 74 | 1015.6 |
| 20260905063039 | 77 | 0 | 0.0 | 4.0 | 0.00 | 0.05 | 0.00 | 74 | 1015.6 |
| 20260905062519 | 78 | 151 | 0.0 | 4.0 | 0.00 | 0.05 | 0.00 | 73 | 1015.5 |
| 20260905062018 | 78 | 0 | 1.0 | 4.0 | 0.00 | 0.05 | 0.00 | 73 | 1015.5 |
| 20260905061541 | 78 | 157 | 1.0 | 6.0 | 0.00 | 0.05 | 0.00 | 73 | 1015.4 |
| 20260905061017 | 78 | 154 | 2.0 | 6.0 | 0.00 | 0.05 | 0.00 | 72 | 1015.4 |
| 20260905060517 | 78 | 169 | 2.0 | 7.0 | 0.00 | 0.05 | 0.00 | 72 | 1015.4 |
| 20260905060046 | 78 | 150 | 2.0 | 7.0 | 0.00 | 0.05 | 0.00 | 72 | 1015.3 |
| 20260905054541 | 78 | 153 | 1.0 | 6.0 | 0.00 | 0.05 | 0.00 | 71 | 1015.3 |
| 20260905053042 | 79 | 140 | 1.0 | 5.0 | 0.00 | 0.05 | 0.00 | 70 | 1015.3 |
| 20260905052024 | 79 | 155 | 1.0 | 6.0 | 0.00 | 0.05 | 0.00 | 69 | 1015.3 |
| 20260905051537 | 79 | 164 | 1.0 | 5.0 | 0.00 | 0.05 | 0.00 | 69 | 1015.4 |
| 20260905051018 | 80 | 155 | 1.0 | 5.0 | 0.00 | 0.05 | 0.00 | 68 | 1015.3 |
| 20260905050518 | 80 | 153 | 1.0 | 5.0 | 0.00 | 0.05 | 0.00 | 68 | 1015.3 |
| 20260905050040 | 80 | 175 | 1.0 | 5.0 | 0.00 | 0.05 | 0.00 | 68 | 1015.3 |
| 20260905045523 | 80 | 157 | 1.0 | 5.0 | 0.00 | 0.05 | 0.05 | 67 | 1015.2 |
| 20260905045017 | 80 | 155 | 1.0 | 5.0 | 0.00 | 0.05 | 0.05 | 67 | 1015.2 |
| 20260905044541 | 81 | 161 | 1.0 | 5.0 | 0.00 | 0.05 | 0.05 | 66 | 1015.1 |
| 20260905043040 | 81 | 141 | 2.0 | 8.0 | 0.00 | 0.05 | 0.05 | 65 | 1015.2 |
| 20260905042020 | 82 | 185 | 3.0 | 9.0 | 0.00 | 0.05 | 0.05 | 64 | 1015.3 |
| 20260905041548 | 82 | 165 | 2.0 | 9.0 | 0.00 | 0.05 | 0.05 | 64 | 1015.3 |
| 20260905041019 | 82 | 134 | 3.0 | 7.0 | 0.00 | 0.05 | 0.05 | 63 | 1015.3 |
| 20260905040040 | 83 | 149 | 3.0 | 10.0 | 0.00 | 0.05 | 0.05 | 62 | 1015.2 |
| 20260905034547 | 83 | 159 | 4.0 | 10.0 | 0.00 | 0.05 | 0.05 | 60 | 1015.2 |
| 20260905033519 | 84 | 157 | 4.0 | 10.0 | 0.00 | 0.05 | 0.05 | 59 | 1015.0 |
| 20260905033038 | 84 | 190 | 4.0 | 10.0 | 0.00 | 0.05 | 0.05 | 59 | 1015.0 |
| 20260905032518 | 84 | 141 | 3.0 | 11.0 | 0.00 | 0.05 | 0.05 | 58 | 1015.0 |
| 20260905032019 | 84 | 145 | 4.0 | 11.0 | 0.00 | 0.05 | 0.05 | 58 | 1014.8 |
| 20260905031538 | 84 | 147 | 4.0 | 10.0 | 0.00 | 0.05 | 0.05 | 57 | 1014.8 |
| 20260905030043 | 85 | 157 | 3.0 | 9.0 | 0.00 | 0.05 | 0.05 | 56 | 1014.7 |
| 20260905024020 | 85 | 132 | 3.0 | 8.0 | 0.00 | 0.05 | 0.05 | 54 | 1014.2 |
| 20260905023518 | 86 | 150 | 3.0 | 8.0 | 0.00 | 0.05 | 0.05 | 54 | 1014.3 |
| 20260905022519 | 86 | 151 | 3.0 | 7.0 | 0.00 | 0.05 | 0.05 | 53 | 1014.1 |
| 20260905022021 | 87 | 155 | 3.0 | 8.0 | 0.00 | 0.05 | 0.05 | 53 | 1014.0 |
| 20260905021537 | 87 | 164 | 4.0 | 8.0 | 0.00 | 0.05 | 0.05 | 52 | 1013.8 |
| 20260905021017 | 87 | 137 | 3.0 | 10.0 | 0.00 | 0.05 | 0.05 | 52 | 1013.8 |
| 20260905020518 | 87 | 157 | 3.0 | 10.0 | 0.00 | 0.05 | 0.05 | 53 | 1013.7 |
| 20260905015020 | 87 | 145 | 3.0 | 7.0 | 0.00 | 0.05 | 0.05 | 53 | 1013.5 |
| 20260905014018 | 88 | 186 | 3.0 | 9.0 | 0.00 | 0.05 | 0.05 | 52 | 1013.5 |
| 20260905013522 | 88 | 165 | 3.0 | 8.0 | 0.00 | 0.05 | 0.05 | 52 | 1013.4 |
| 20260905013045 | 88 | 134 | 3.0 | 14.0 | 0.00 | 0.05 | 0.05 | 52 | 1013.4 |
| 20260905012517 | 88 | 146 | 4.0 | 14.0 | 0.00 | 0.05 | 0.05 | 52 | 1013.4 |
| 20260905011537 | 88 | 133 | 3.0 | 11.0 | 0.00 | 0.05 | 0.05 | 52 | 1013.2 |
| 20260905005519 | 90 | 169 | 3.0 | 8.0 | 0.00 | 0.05 | 0.05 | 50 | 1013.1 |
| 20260905005020 | 90 | 146 | 3.0 | 8.0 | 0.00 | 0.05 | 0.05 | 48 | 1012.9 |
| 20260905004017 | 91 | 145 | 2.0 | 8.0 | 0.00 | 0.05 | 0.05 | 46 | 1013.0 |
| 20260905003521 | 91 | 165 | 3.0 | 8.0 | 0.00 | 0.05 | 0.05 | 47 | 1013.0 |
| 20260905003035 | 91 | 152 | 2.0 | 8.0 | 0.00 | 0.05 | 0.05 | 48 | 1012.9 |
| 20260905002519 | 91 | 155 | 3.0 | 8.0 | 0.00 | 0.05 | 0.05 | 48 | 1012.9 |
| 20260905002016 | 92 | 0 | 3.0 | 8.0 | 0.00 | 0.05 | 0.05 | 49 | 1012.8 |
| 20260905001537 | 92 | 146 | 2.0 | 8.0 | 0.00 | 0.05 | 0.05 | 48 | 1012.7 |
| 20260905000519 | 92 | 138 | 3.0 | 10.0 | 0.00 | 0.05 | 0.05 | 48 | 1012.6 |
| 20260904235520 | 93 | 138 | 4.0 | 8.0 | 0.00 | 0.05 | 0.05 | 46 | 1012.6 |
| 20260904235018 | 93 | 176 | 4.0 | 10.0 | 0.00 | 0.05 | 0.05 | 46 | 1012.5 |
| 20260904234540 | 94 | 127 | 2.0 | 10.0 | 0.00 | 0.05 | 0.05 | 46 | 1012.4 |
| 20260904234020 | 93 | 152 | 3.0 | 11.0 | 0.00 | 0.05 | 0.05 | 46 | 1012.3 |
| 20260904233520 | 94 | 167 | 4.0 | 11.0 | 0.00 | 0.05 | 0.05 | 45 | 1012.3 |
| 20260904233038 | 94 | 121 | 5.0 | 10.0 | 0.00 | 0.05 | 0.05 | 45 | 1012.2 |
| 20260904232518 | 94 | 135 | 3.0 | 9.0 | 0.00 | 0.05 | 0.05 | 45 | 1012.2 |
| 20260904232019 | 95 | 166 | 3.0 | 9.0 | 0.00 | 0.05 | 0.05 | 44 | 1012.4 |
| 20260904231535 | 95 | 156 | 2.0 | 11.0 | 0.00 | 0.05 | 0.05 | 45 | 1012.4 |
| 20260904230040 | 95 | 163 | 4.0 | 8.0 | 0.00 | 0.05 | 0.05 | 44 | 1012.5 |
| 20260904225020 | 95 | 159 | 3.0 | 13.0 | 0.00 | 0.05 | 0.05 | 43 | 1012.5 |
| 20260904224537 | 95 | 134 | 3.0 | 8.0 | 0.00 | 0.05 | 0.05 | 44 | 1012.6 |
| 20260904224018 | 96 | 142 | 2.0 | 9.0 | 0.00 | 0.05 | 0.05 | 42 | 1012.6 |
| 20260904223521 | 96 | 169 | 3.0 | 10.0 | 0.00 | 0.05 | 0.05 | 43 | 1012.7 |
| 20260904223039 | 96 | 141 | 3.0 | 11.0 | 0.00 | 0.05 | 0.05 | 42 | 1012.8 |
| 20260904222517 | 96 | 99 | 4.0 | 11.0 | 0.00 | 0.05 | 0.05 | 43 | 1012.8 |
| 20260904222022 | 96 | 150 | 4.0 | 11.0 | 0.00 | 0.05 | 0.05 | 43 | 1012.7 |
| 20260904221537 | 96 | 164 | 5.0 | 11.0 | 0.00 | 0.05 | 0.05 | 43 | 1012.8 |
| 20260904220516 | 96 | 174 | 3.0 | 10.0 | 0.00 | 0.05 | 0.05 | 44 | 1012.9 |
| 20260904220043 | 96 | 143 | 4.0 | 9.0 | 0.00 | 0.05 | 0.05 | 43 | 1012.8 |
| 20260904214541 | 95 | 148 | 3.0 | 11.0 | 0.00 | 0.05 | 0.05 | 43 | 1013.1 |
| 20260904214023 | 95 | 130 | 4.0 | 11.0 | 0.00 | 0.05 | 0.05 | 44 | 1013.2 |
| 20260904213522 | 95 | 163 | 5.0 | 11.0 | 0.00 | 0.05 | 0.05 | 43 | 1013.2 |
| 20260904213042 | 95 | 192 | 5.0 | 11.0 | 0.00 | 0.05 | 0.05 | 44 | 1013.3 |
| 20260904211543 | 95 | 204 | 5.0 | 12.0 | 0.00 | 0.05 | 0.05 | 44 | 1013.4 |
| 20260904210518 | 96 | 152 | 5.0 | 12.0 | 0.00 | 0.05 | 0.05 | 42 | 1013.6 |
| 20260904210040 | 95 | 144 | 5.0 | 12.0 | 0.00 | 0.05 | 0.05 | 44 | 1013.7 |
| 20260904205521 | 95 | 165 | 4.0 | 9.0 | 0.00 | 0.05 | 0.05 | 44 | 1013.7 |
| 20260904205017 | 94 | 146 | 4.0 | 11.0 | 0.00 | 0.05 | 0.05 | 44 | 1013.7 |
| 20260904204539 | 95 | 146 | 4.0 | 11.0 | 0.00 | 0.05 | 0.05 | 44 | 1013.8 |
| 20260904203038 | 93 | 139 | 4.0 | 10.0 | 0.00 | 0.05 | 0.05 | 45 | 1014.1 |
| 20260904201540 | 92 | 132 | 5.0 | 11.0 | 0.00 | 0.05 | 0.05 | 48 | 1014.3 |
| 20260904200518 | 92 | 152 | 4.0 | 9.0 | 0.00 | 0.05 | 0.05 | 51 | 1014.5 |
| 20260904200036 | 92 | 157 | 3.0 | 10.0 | 0.00 | 0.05 | 0.05 | 51 | 1014.6 |
| 20260904195524 | 92 | 169 | 5.0 | 10.0 | 0.00 | 0.05 | 0.05 | 52 | 1014.5 |
| 20260904195020 | 92 | 202 | 4.0 | 10.0 | 0.00 | 0.05 | 0.05 | 51 | 1014.6 |
| 20260904194538 | 93 | 211 | 5.0 | 13.0 | 0.00 | 0.05 | 0.05 | 50 | 1014.6 |
| 20260904194019 | 94 | 140 | 6.0 | 14.0 | 0.00 | 0.05 | 0.05 | 48 | 1014.7 |
| 20260904193041 | 96 | 156 | 4.0 | 13.0 | 0.00 | 0.05 | 0.05 | 46 | 1014.7 |
| 20260904191539 | 95 | 155 | 3.0 | 12.0 | 0.00 | 0.05 | 0.05 | 45 | 1015.0 |
| 20260904190038 | 94 | 173 | 4.0 | 12.0 | 0.00 | 0.05 | 0.05 | 45 | 1015.0 |
| 20260904185519 | 94 | 163 | 3.0 | 12.0 | 0.00 | 0.05 | 0.05 | 44 | 1015.0 |
| 20260904185022 | 93 | 148 | 4.0 | 10.0 | 0.00 | 0.05 | 0.05 | 45 | 1015.1 |
| 20260904184538 | 92 | 165 | 3.0 | 10.0 | 0.00 | 0.05 | 0.05 | 45 | 1015.2 |
| 20260904184017 | 92 | 208 | 3.0 | 10.0 | 0.00 | 0.05 | 0.05 | 45 | 1015.1 |
| 20260904183519 | 91 | 172 | 5.0 | 10.0 | 0.00 | 0.05 | 0.05 | 45 | 1015.2 |
| 20260904183037 | 91 | 157 | 3.0 | 10.0 | 0.00 | 0.05 | 0.05 | 45 | 1015.2 |
| 20260904181540 | 90 | 163 | 3.0 | 9.0 | 0.00 | 0.05 | 0.05 | 47 | 1015.4 |
| 20260904181023 | 89 | 173 | 3.0 | 8.0 | 0.00 | 0.05 | 0.05 | 50 | 1015.5 |
| 20260904180526 | 89 | 163 | 2.0 | 12.0 | 0.00 | 0.05 | 0.05 | 51 | 1015.5 |
| 20260904180047 | 89 | 169 | 4.0 | 13.0 | 0.00 | 0.05 | 0.05 | 49 | 1015.5 |
| 20260904175517 | 90 | 215 | 6.0 | 13.0 | 0.00 | 0.05 | 0.05 | 50 | 1015.5 |
| 20260904175019 | 91 | 194 | 3.0 | 8.0 | 0.00 | 0.05 | 0.05 | 50 | 1015.6 |
| 20260904174542 | 89 | 199 | 4.0 | 8.0 | 0.00 | 0.05 | 0.05 | 51 | 1015.8 |
| 20260904173516 | 88 | 209 | 2.0 | 9.0 | 0.00 | 0.05 | 0.05 | 52 | 1015.9 |
| 20260904173040 | 88 | 169 | 2.0 | 10.0 | 0.00 | 0.05 | 0.05 | 52 | 1016.0 |
| 20260904171609 | 86 | 218 | 5.0 | 10.0 | 0.00 | 0.05 | 0.05 | 53 | 1016.1 |
| 20260904171017 | 86 | 204 | 5.0 | 10.0 | 0.00 | 0.05 | 0.05 | 52 | 1016.2 |
| 20260904170519 | 87 | 207 | 3.0 | 10.0 | 0.00 | 0.05 | 0.05 | 52 | 1016.2 |
| 20260904170038 | 86 | 196 | 3.0 | 8.0 | 0.00 | 0.05 | 0.05 | 54 | 1016.2 |
| 20260904165520 | 86 | 190 | 3.0 | 9.0 | 0.00 | 0.05 | 0.05 | 54 | 1016.3 |
| 20260904165017 | 86 | 172 | 3.0 | 9.0 | 0.00 | 0.05 | 0.05 | 53 | 1016.3 |
| 20260904164536 | 86 | 232 | 3.0 | 10.0 | 0.00 | 0.05 | 0.05 | 54 | 1016.2 |
| 20260904161551 | 87 | 161 | 4.0 | 12.0 | 0.00 | 0.05 | 0.05 | 54 | 1016.2 |
| 20260904160519 | 88 | 161 | 4.0 | 11.0 | 0.00 | 0.05 | 0.05 | 56 | 1016.2 |
| 20260904160037 | 86 | 136 | 4.0 | 14.0 | 0.00 | 0.05 | 0.05 | 56 | 1016.1 |
| 20260904155526 | 86 | 198 | 3.0 | 14.0 | 0.00 | 0.05 | 0.05 | 58 | 1016.1 |
| 20260904155021 | 86 | 186 | 4.0 | 11.0 | 0.00 | 0.05 | 0.05 | 59 | 1016.1 |
| 20260904154543 | 86 | 186 | 4.0 | 10.0 | 0.00 | 0.05 | 0.05 | 59 | 1016.0 |
| 20260904154020 | 85 | 180 | 5.0 | 10.0 | 0.00 | 0.05 | 0.05 | 64 | 1016.0 |
| 20260904153522 | 83 | 130 | 3.0 | 11.0 | 0.00 | 0.05 | 0.05 | 70 | 1015.9 |
| 20260904153051 | 82 | 160 | 4.0 | 11.0 | 0.00 | 0.05 | 0.05 | 71 | 1016.0 |
| 20260904152520 | 81 | 188 | 4.0 | 11.0 | 0.00 | 0.05 | 0.05 | 72 | 1016.0 |
| 20260904152019 | 81 | 173 | 3.0 | 8.0 | 0.00 | 0.05 | 0.05 | 74 | 1016.0 |
| 20260904151539 | 81 | 184 | 3.0 | 8.0 | 0.00 | 0.05 | 0.05 | 73 | 1016.1 |
| 20260904151021 | 81 | 159 | 1.0 | 10.0 | 0.00 | 0.05 | 0.05 | 73 | 1016.1 |
| 20260904150519 | 81 | 133 | 3.0 | 10.0 | 0.00 | 0.05 | 0.05 | 72 | 1016.0 |
| 20260904150038 | 81 | 146 | 4.0 | 10.0 | 0.00 | 0.05 | 0.05 | 71 | 1016.0 |
| 20260904145517 | 81 | 234 | 2.0 | 7.0 | 0.00 | 0.05 | 0.05 | 72 | 1016.0 |
| 20260904145026 | 80 | 159 | 3.0 | 11.0 | 0.00 | 0.05 | 0.05 | 74 | 1016.1 |
| 20260904143038 | 79 | 182 | 3.0 | 10.0 | 0.00 | 0.05 | 0.05 | 76 | 1015.8 |
| 20260904142521 | 78 | 140 | 3.0 | 10.0 | 0.00 | 0.05 | 0.05 | 77 | 1015.8 |
| 20260904142020 | 78 | 150 | 2.0 | 11.0 | 0.00 | 0.05 | 0.05 | 77 | 1015.8 |
| 20260904141538 | 78 | 159 | 4.0 | 11.0 | 0.00 | 0.05 | 0.05 | 78 | 1015.6 |
| 20260904141017 | 77 | 167 | 3.0 | 10.0 | 0.00 | 0.05 | 0.05 | 79 | 1015.6 |
| 20260904140519 | 77 | 187 | 3.0 | 9.0 | 0.01 | 0.05 | 0.05 | 80 | 1015.6 |
| 20260904140039 | 77 | 169 | 3.0 | 8.0 | 0.02 | 0.05 | 0.05 | 79 | 1015.6 |